Year,Month,Day,Hour,Minute,Value (Times are PST for temperature in C)
2014,08,09,00,00,18.60
2014,08,09,00,01,18.60
2014,08,09,00,02,18.50
2014,08,09,00,03,18.50
2014,08,09,00,04,18.50
2014,08,09,00,05,18.40
2014,08,09,00,06,18.40
2014,08,09,00,07,18.40
2014,08,09,00,08,18.40
2014,08,09,00,09,18.30
2014,08,09,00,10,18.30
2014,08,09,00,11,18.30
2014,08,09,00,12,18.30
2014,08,09,00,13,18.30
2014,08,09,00,14,18.20
2014,08,09,00,15,18.20
2014,08,09,00,16,18.20
2014,08,09,00,17,18.20
2014,08,09,00,18,18.20
2014,08,09,00,19,18.20
2014,08,09,00,20,18.20
2014,08,09,00,21,18.20
2014,08,09,00,22,18.10
2014,08,09,00,23,18.10
2014,08,09,00,24,18.10
2014,08,09,00,25,18.10
2014,08,09,00,26,18.10
2014,08,09,00,27,18.10
2014,08,09,00,28,18.10
2014,08,09,00,29,18.10
2014,08,09,00,30,18.10
2014,08,09,00,31,18.10
2014,08,09,00,32,18.10
2014,08,09,00,33,18.10
2014,08,09,00,34,18.10
2014,08,09,00,35,18.10
2014,08,09,00,36,18.10
2014,08,09,00,37,18.10
2014,08,09,00,38,18.10
2014,08,09,00,39,18.10
2014,08,09,00,40,18.10
2014,08,09,00,41,18.20
2014,08,09,00,42,18.20
2014,08,09,00,43,18.20
2014,08,09,00,44,18.20
2014,08,09,00,45,18.20
2014,08,09,00,46,18.20
2014,08,09,00,47,18.30
2014,08,09,00,48,18.30
2014,08,09,00,49,18.30
2014,08,09,00,50,18.30
2014,08,09,00,51,18.30
2014,08,09,00,52,18.20
2014,08,09,00,53,18.30
2014,08,09,00,54,18.20
2014,08,09,00,55,18.20
2014,08,09,00,56,18.20
2014,08,09,00,57,18.20
2014,08,09,00,58,18.20
2014,08,09,00,59,18.20
2014,08,09,01,00,18.20
2014,08,09,01,01,18.20
2014,08,09,01,02,18.10
2014,08,09,01,03,18.10
2014,08,09,01,04,18.10
2014,08,09,01,05,18.10
2014,08,09,01,06,18.00
2014,08,09,01,07,18.00
2014,08,09,01,08,18.00
2014,08,09,01,09,17.90
2014,08,09,01,10,17.90
2014,08,09,01,11,17.90
2014,08,09,01,12,17.90
2014,08,09,01,13,17.80
2014,08,09,01,14,17.80
2014,08,09,01,15,17.80
2014,08,09,01,16,17.80
2014,08,09,01,17,17.80
2014,08,09,01,18,17.80
2014,08,09,01,19,17.80
2014,08,09,01,20,17.80
2014,08,09,01,21,17.70
2014,08,09,01,22,17.70
2014,08,09,01,23,17.70
2014,08,09,01,24,17.60
2014,08,09,01,25,17.60
2014,08,09,01,26,17.50
2014,08,09,01,27,17.40
2014,08,09,01,28,17.40
2014,08,09,01,29,17.40
2014,08,09,01,30,17.30
2014,08,09,01,31,17.30
2014,08,09,01,32,17.30
2014,08,09,01,33,17.20
2014,08,09,01,34,17.20
2014,08,09,01,35,17.20
2014,08,09,01,36,17.20
2014,08,09,01,37,17.10
2014,08,09,01,38,17.10
2014,08,09,01,39,17.10
2014,08,09,01,40,17.10
2014,08,09,01,41,17.10
2014,08,09,01,42,17.10
2014,08,09,01,43,17.10
2014,08,09,01,44,17.00
2014,08,09,01,45,17.00
2014,08,09,01,46,16.90
2014,08,09,01,47,16.90
2014,08,09,01,48,16.80
2014,08,09,01,49,16.80
2014,08,09,01,50,16.80
2014,08,09,01,51,16.70
2014,08,09,01,52,16.70
2014,08,09,01,53,16.60
2014,08,09,01,54,16.60
2014,08,09,01,55,16.60
2014,08,09,01,56,16.50
2014,08,09,01,57,16.50
2014,08,09,01,58,16.40
2014,08,09,01,59,16.40
2014,08,09,02,00,16.40
2014,08,09,02,01,16.30
2014,08,09,02,02,16.30
2014,08,09,02,03,16.30
2014,08,09,02,04,16.20
2014,08,09,02,05,16.20
2014,08,09,02,06,16.20
2014,08,09,02,07,16.20
2014,08,09,02,08,16.10
2014,08,09,02,09,16.10
2014,08,09,02,10,16.10
2014,08,09,02,11,16.00
2014,08,09,02,12,16.00
2014,08,09,02,13,16.00
2014,08,09,02,14,15.90
2014,08,09,02,15,15.90
2014,08,09,02,16,15.90
2014,08,09,02,17,15.90
2014,08,09,02,18,15.80
2014,08,09,02,19,15.80
2014,08,09,02,20,15.80
2014,08,09,02,21,15.80
2014,08,09,02,22,15.80
2014,08,09,02,23,15.70
2014,08,09,02,24,15.70
2014,08,09,02,25,15.70
2014,08,09,02,26,15.70
2014,08,09,02,27,15.70
2014,08,09,02,28,15.70
2014,08,09,02,29,15.70
2014,08,09,02,30,15.70
2014,08,09,02,31,15.60
2014,08,09,02,32,15.60
2014,08,09,02,33,15.60
2014,08,09,02,34,15.60
2014,08,09,02,35,15.60
2014,08,09,02,36,15.60
2014,08,09,02,37,15.50
2014,08,09,02,38,15.50
2014,08,09,02,39,15.50
2014,08,09,02,40,15.50
2014,08,09,02,41,15.50
2014,08,09,02,42,15.50
2014,08,09,02,43,15.40
2014,08,09,02,44,15.40
2014,08,09,02,45,15.40
2014,08,09,02,46,15.40
2014,08,09,02,47,15.40
2014,08,09,02,48,15.40
2014,08,09,02,49,15.30
2014,08,09,02,50,15.30
2014,08,09,02,51,15.30
2014,08,09,02,52,15.30
2014,08,09,02,53,15.30
2014,08,09,02,54,15.30
2014,08,09,02,55,15.20
2014,08,09,02,56,15.20
2014,08,09,02,57,15.20
2014,08,09,02,58,15.20
2014,08,09,02,59,15.20
2014,08,09,03,00,15.20
2014,08,09,03,01,15.10
2014,08,09,03,02,15.10
2014,08,09,03,03,15.10
2014,08,09,03,04,15.10
2014,08,09,03,05,15.10
2014,08,09,03,06,15.10
2014,08,09,03,07,15.10
2014,08,09,03,08,15.10
2014,08,09,03,09,15.10
2014,08,09,03,10,15.10
2014,08,09,03,11,15.10
2014,08,09,03,12,15.10
2014,08,09,03,13,15.10
2014,08,09,03,14,15.10
2014,08,09,03,15,15.10
2014,08,09,03,16,15.10
2014,08,09,03,17,15.10
2014,08,09,03,18,15.10
2014,08,09,03,19,15.10
2014,08,09,03,20,15.10
2014,08,09,03,21,15.10
2014,08,09,03,22,15.00
2014,08,09,03,23,15.00
2014,08,09,03,24,15.00
2014,08,09,03,25,15.00
2014,08,09,03,26,15.00
2014,08,09,03,27,15.00
2014,08,09,03,28,15.00
2014,08,09,03,29,15.00
2014,08,09,03,30,15.00
2014,08,09,03,31,15.00
2014,08,09,03,32,15.00
2014,08,09,03,33,15.00
2014,08,09,03,34,15.00
2014,08,09,03,35,14.90
2014,08,09,03,36,14.90
2014,08,09,03,37,14.90
2014,08,09,03,38,14.90
2014,08,09,03,39,14.90
2014,08,09,03,40,14.90
2014,08,09,03,41,14.90
2014,08,09,03,42,14.90
2014,08,09,03,43,14.90
2014,08,09,03,44,14.90
2014,08,09,03,45,14.90
2014,08,09,03,46,14.90
2014,08,09,03,47,14.90
2014,08,09,03,48,14.90
2014,08,09,03,49,14.90
2014,08,09,03,50,14.90
2014,08,09,03,51,14.90
2014,08,09,03,52,14.90
2014,08,09,03,53,14.90
2014,08,09,03,54,14.80
2014,08,09,03,55,14.80
2014,08,09,03,56,14.80
2014,08,09,03,57,14.80
2014,08,09,03,58,14.80
2014,08,09,03,59,14.80
2014,08,09,04,00,14.70
2014,08,09,04,01,14.70
2014,08,09,04,02,14.70
2014,08,09,04,03,14.70
2014,08,09,04,04,14.70
2014,08,09,04,05,14.70
2014,08,09,04,06,14.70
2014,08,09,04,07,14.70
2014,08,09,04,08,14.70
2014,08,09,04,09,14.70
2014,08,09,04,10,14.70
2014,08,09,04,11,14.70
2014,08,09,04,12,14.70
2014,08,09,04,13,14.70
2014,08,09,04,14,14.80
2014,08,09,04,15,14.80
2014,08,09,04,16,14.80
2014,08,09,04,17,14.80
2014,08,09,04,18,14.80
2014,08,09,04,19,14.80
2014,08,09,04,20,14.80
2014,08,09,04,21,14.80
2014,08,09,04,22,14.80
2014,08,09,04,23,14.80
2014,08,09,04,24,14.80
2014,08,09,04,25,14.80
2014,08,09,04,26,14.80
2014,08,09,04,27,14.80
2014,08,09,04,28,14.80
2014,08,09,04,29,14.70
2014,08,09,04,30,14.70
2014,08,09,04,31,14.70
2014,08,09,04,32,14.70
2014,08,09,04,33,14.70
2014,08,09,04,34,14.70
2014,08,09,04,35,14.70
2014,08,09,04,36,14.80
2014,08,09,04,37,14.80
2014,08,09,04,38,14.80
2014,08,09,04,39,14.80
2014,08,09,04,40,14.80
2014,08,09,04,41,14.80
2014,08,09,04,42,14.80
2014,08,09,04,43,14.80
2014,08,09,04,44,14.80
2014,08,09,04,45,14.80
2014,08,09,04,46,14.90
2014,08,09,04,47,14.90
2014,08,09,04,48,14.90
2014,08,09,04,49,14.90
2014,08,09,04,50,15.00
2014,08,09,04,51,15.00
2014,08,09,04,52,15.00
2014,08,09,04,53,15.00
2014,08,09,04,54,15.10
2014,08,09,04,55,15.10
2014,08,09,04,56,15.10
2014,08,09,04,57,15.10
2014,08,09,04,58,15.10
2014,08,09,04,59,15.10
2014,08,09,05,00,15.10
2014,08,09,05,01,15.10
2014,08,09,05,02,15.10
2014,08,09,05,03,15.10
2014,08,09,05,04,15.10
2014,08,09,05,05,15.10
2014,08,09,05,06,15.00
2014,08,09,05,07,15.00
2014,08,09,05,08,15.00
2014,08,09,05,09,14.90
2014,08,09,05,10,14.90
2014,08,09,05,11,14.90
2014,08,09,05,12,14.90
2014,08,09,05,13,14.80
2014,08,09,05,14,14.80
2014,08,09,05,15,14.80
2014,08,09,05,16,14.80
2014,08,09,05,17,14.80
2014,08,09,05,18,14.70
2014,08,09,05,19,14.70
2014,08,09,05,20,14.70
2014,08,09,05,21,14.70
2014,08,09,05,22,14.70
2014,08,09,05,23,14.70
2014,08,09,05,24,14.60
2014,08,09,05,25,14.60
2014,08,09,05,26,14.60
2014,08,09,05,27,14.60
2014,08,09,05,28,14.60
2014,08,09,05,29,14.50
2014,08,09,05,30,14.50
2014,08,09,05,31,14.50
2014,08,09,05,32,14.50
2014,08,09,05,33,14.40
2014,08,09,05,34,14.40
2014,08,09,05,35,14.40
2014,08,09,05,36,14.40
2014,08,09,05,37,14.40
2014,08,09,05,38,14.40
2014,08,09,05,39,14.30
2014,08,09,05,40,14.30
2014,08,09,05,41,14.30
2014,08,09,05,42,14.30
2014,08,09,05,43,14.30
2014,08,09,05,44,14.30
2014,08,09,05,45,14.30
2014,08,09,05,46,14.30
2014,08,09,05,47,14.20
2014,08,09,05,48,14.20
2014,08,09,05,49,14.20
2014,08,09,05,50,14.20
2014,08,09,05,51,14.20
2014,08,09,05,52,14.20
2014,08,09,05,53,14.20
2014,08,09,05,54,14.10
2014,08,09,05,55,14.10
2014,08,09,05,56,14.10
2014,08,09,05,57,14.10
2014,08,09,05,58,14.10
2014,08,09,05,59,14.10
2014,08,09,06,00,14.00
2014,08,09,06,01,14.00
2014,08,09,06,02,13.90
2014,08,09,06,03,13.90
2014,08,09,06,04,13.90
2014,08,09,06,05,13.90
2014,08,09,06,06,13.90
2014,08,09,06,07,13.90
2014,08,09,06,08,13.90
2014,08,09,06,09,13.80
2014,08,09,06,10,13.80
2014,08,09,06,11,13.90
2014,08,09,06,12,13.90
2014,08,09,06,13,13.90
2014,08,09,06,14,14.00
2014,08,09,06,15,14.00
2014,08,09,06,16,14.00
2014,08,09,06,17,14.00
2014,08,09,06,18,14.10
2014,08,09,06,19,14.10
2014,08,09,06,20,14.10
2014,08,09,06,21,14.10
2014,08,09,06,22,14.10
2014,08,09,06,23,14.10
2014,08,09,06,24,14.10
2014,08,09,06,25,14.10
2014,08,09,06,26,14.10
2014,08,09,06,27,14.10
2014,08,09,06,28,14.10
2014,08,09,06,29,14.10
2014,08,09,06,30,14.10
2014,08,09,06,31,14.10
2014,08,09,06,32,14.10
2014,08,09,06,33,14.10
2014,08,09,06,34,14.10
2014,08,09,06,35,14.10
2014,08,09,06,36,14.10
2014,08,09,06,37,14.10
2014,08,09,06,38,14.10
2014,08,09,06,39,14.10
2014,08,09,06,40,14.00
2014,08,09,06,41,14.00
2014,08,09,06,42,14.00
2014,08,09,06,43,14.00
2014,08,09,06,44,14.00
2014,08,09,06,45,14.00
2014,08,09,06,46,14.00
2014,08,09,06,47,14.00
2014,08,09,06,48,14.00
2014,08,09,06,49,14.00
2014,08,09,06,50,14.00
2014,08,09,06,51,14.00
2014,08,09,06,52,14.00
2014,08,09,06,53,14.00
2014,08,09,06,54,14.10
2014,08,09,06,55,14.10
2014,08,09,06,56,14.10
2014,08,09,06,57,14.10
2014,08,09,06,58,14.10
2014,08,09,06,59,14.10
2014,08,09,07,00,14.10
2014,08,09,07,01,14.20
2014,08,09,07,02,14.20
2014,08,09,07,03,14.20
2014,08,09,07,04,14.20
2014,08,09,07,05,14.20
2014,08,09,07,06,14.30
2014,08,09,07,07,14.30
2014,08,09,07,08,14.30
2014,08,09,07,09,14.30
2014,08,09,07,10,14.40
2014,08,09,07,11,14.40
2014,08,09,07,12,14.40
2014,08,09,07,13,14.40
2014,08,09,07,14,14.50
2014,08,09,07,15,14.50
2014,08,09,07,16,14.50
2014,08,09,07,17,14.60
2014,08,09,07,18,14.60
2014,08,09,07,19,14.60
2014,08,09,07,20,14.70
2014,08,09,07,21,14.70
2014,08,09,07,22,14.70
2014,08,09,07,23,14.70
2014,08,09,07,24,14.80
2014,08,09,07,25,14.80
2014,08,09,07,26,14.80
2014,08,09,07,27,14.80
2014,08,09,07,28,14.80
2014,08,09,07,29,14.80
2014,08,09,07,30,14.90
2014,08,09,07,31,14.90
2014,08,09,07,32,15.00
2014,08,09,07,33,15.00
2014,08,09,07,34,15.20
2014,08,09,07,35,15.20
2014,08,09,07,36,15.30
2014,08,09,07,37,15.40
2014,08,09,07,38,15.50
2014,08,09,07,39,15.60
2014,08,09,07,40,15.60
2014,08,09,07,41,15.70
2014,08,09,07,42,15.80
2014,08,09,07,43,15.80
2014,08,09,07,44,15.90
2014,08,09,07,45,16.00
2014,08,09,07,46,16.10
2014,08,09,07,47,16.20
2014,08,09,07,48,16.20
2014,08,09,07,49,16.30
2014,08,09,07,50,16.30
2014,08,09,07,51,16.40
2014,08,09,07,52,16.50
2014,08,09,07,53,16.60
2014,08,09,07,54,16.60
2014,08,09,07,55,16.70
2014,08,09,07,56,16.70
2014,08,09,07,57,16.90
2014,08,09,07,58,16.90
2014,08,09,07,59,17.00
2014,08,09,08,00,17.10
2014,08,09,08,01,17.20
2014,08,09,08,02,17.20
2014,08,09,08,03,17.30
2014,08,09,08,04,17.30
2014,08,09,08,05,17.40
2014,08,09,08,06,17.50
2014,08,09,08,07,17.60
2014,08,09,08,08,17.70
2014,08,09,08,09,17.70
2014,08,09,08,10,17.80
2014,08,09,08,11,17.80
2014,08,09,08,12,17.90
2014,08,09,08,13,18.00
2014,08,09,08,14,18.10
2014,08,09,08,15,18.20
2014,08,09,08,16,18.20
2014,08,09,08,17,18.30
2014,08,09,08,18,18.30
2014,08,09,08,19,18.40
2014,08,09,08,20,18.40
2014,08,09,08,21,18.50
2014,08,09,08,22,18.50
2014,08,09,08,23,18.60
2014,08,09,08,24,18.70
2014,08,09,08,25,18.70
2014,08,09,08,26,18.80
2014,08,09,08,27,18.80
2014,08,09,08,28,18.90
2014,08,09,08,29,19.00
2014,08,09,08,30,19.10
2014,08,09,08,31,19.10
2014,08,09,08,32,19.10
2014,08,09,08,33,19.20
2014,08,09,08,34,19.20
2014,08,09,08,35,19.30
2014,08,09,08,36,19.30
2014,08,09,08,37,19.40
2014,08,09,08,38,19.40
2014,08,09,08,39,19.40
2014,08,09,08,40,19.20
2014,08,09,08,41,19.10
2014,08,09,08,42,19.00
2014,08,09,08,43,18.90
2014,08,09,08,44,18.90
2014,08,09,08,45,18.90
2014,08,09,08,46,19.00
2014,08,09,08,47,19.00
2014,08,09,08,48,19.10
2014,08,09,08,49,19.10
2014,08,09,08,50,19.10
2014,08,09,08,51,19.10
2014,08,09,08,52,19.10
2014,08,09,08,53,19.10
2014,08,09,08,54,19.10
2014,08,09,08,55,19.20
2014,08,09,08,56,19.20
2014,08,09,08,57,19.30
2014,08,09,08,58,19.30
2014,08,09,08,59,19.40
2014,08,09,09,00,19.30
2014,08,09,09,01,19.30
2014,08,09,09,02,19.30
2014,08,09,09,03,19.30
2014,08,09,09,04,19.40
2014,08,09,09,05,19.50
2014,08,09,09,06,19.60
2014,08,09,09,07,19.60
2014,08,09,09,08,19.70
2014,08,09,09,09,19.70
2014,08,09,09,10,19.70
2014,08,09,09,11,19.70
2014,08,09,09,12,19.70
2014,08,09,09,13,19.70
2014,08,09,09,14,19.70
2014,08,09,09,15,19.70
2014,08,09,09,16,19.70
2014,08,09,09,17,19.80
2014,08,09,09,18,19.90
2014,08,09,09,19,20.00
2014,08,09,09,20,20.10
2014,08,09,09,21,20.20
2014,08,09,09,22,20.30
2014,08,09,09,23,20.30
2014,08,09,09,24,20.30
2014,08,09,09,25,20.30
2014,08,09,09,26,20.20
2014,08,09,09,27,20.20
2014,08,09,09,28,20.20
2014,08,09,09,29,20.20
2014,08,09,09,30,20.20
2014,08,09,09,31,20.20
2014,08,09,09,32,20.20
2014,08,09,09,33,20.20
2014,08,09,09,34,20.10
2014,08,09,09,35,20.20
2014,08,09,09,36,20.30
2014,08,09,09,37,20.40
2014,08,09,09,38,20.50
2014,08,09,09,39,20.60
2014,08,09,09,40,20.60
2014,08,09,09,41,20.80
2014,08,09,09,42,20.90
2014,08,09,09,43,20.90
2014,08,09,09,44,20.90
2014,08,09,09,45,20.90
2014,08,09,09,46,20.80
2014,08,09,09,47,20.90
2014,08,09,09,48,20.90
2014,08,09,09,49,20.80
2014,08,09,09,50,20.90
2014,08,09,09,51,20.90
2014,08,09,09,52,20.90
2014,08,09,09,53,20.90
2014,08,09,09,54,20.80
2014,08,09,09,55,20.70
2014,08,09,09,56,20.70
2014,08,09,09,57,20.70
2014,08,09,09,58,20.70
2014,08,09,09,59,20.70
2014,08,09,10,00,20.70
2014,08,09,10,01,20.80
2014,08,09,10,02,20.90
2014,08,09,10,03,20.90
2014,08,09,10,04,20.90
2014,08,09,10,05,20.90
2014,08,09,10,06,20.90
2014,08,09,10,07,20.90
2014,08,09,10,08,20.90
2014,08,09,10,09,20.90
2014,08,09,10,10,20.90
2014,08,09,10,11,20.80
2014,08,09,10,12,20.80
2014,08,09,10,13,20.80
2014,08,09,10,14,20.90
2014,08,09,10,15,20.90
2014,08,09,10,16,21.00
2014,08,09,10,17,21.10
2014,08,09,10,18,21.20
2014,08,09,10,19,21.40
2014,08,09,10,20,21.50
2014,08,09,10,21,21.50
2014,08,09,10,22,21.50
2014,08,09,10,23,21.40
2014,08,09,10,24,21.40
2014,08,09,10,25,21.30
2014,08,09,10,26,21.20
2014,08,09,10,27,21.20
2014,08,09,10,28,21.20
2014,08,09,10,29,21.20
2014,08,09,10,30,21.10
2014,08,09,10,31,21.10
2014,08,09,10,32,21.10
2014,08,09,10,33,21.20
2014,08,09,10,34,21.30
2014,08,09,10,35,21.30
2014,08,09,10,36,21.40
2014,08,09,10,37,21.40
2014,08,09,10,38,21.40
2014,08,09,10,39,21.40
2014,08,09,10,40,21.40
2014,08,09,10,41,21.20
2014,08,09,10,42,21.10
2014,08,09,10,43,21.00
2014,08,09,10,44,20.90
2014,08,09,10,45,20.90
2014,08,09,10,46,20.80
2014,08,09,10,47,20.70
2014,08,09,10,48,20.60
2014,08,09,10,49,20.60
2014,08,09,10,50,20.40
2014,08,09,10,51,20.30
2014,08,09,10,52,20.30
2014,08,09,10,53,20.20
2014,08,09,10,54,20.20
2014,08,09,10,55,20.20
2014,08,09,10,56,20.20
2014,08,09,10,57,20.20
2014,08,09,10,58,20.20
2014,08,09,10,59,20.10
2014,08,09,11,00,20.10
2014,08,09,11,01,20.20
2014,08,09,11,02,20.30
2014,08,09,11,03,20.30
2014,08,09,11,04,20.30
2014,08,09,11,05,20.40
2014,08,09,11,06,20.40
2014,08,09,11,07,20.40
2014,08,09,11,08,20.40
2014,08,09,11,09,20.40
2014,08,09,11,10,20.30
2014,08,09,11,11,20.30
2014,08,09,11,12,20.40
2014,08,09,11,13,20.40
2014,08,09,11,14,20.40
2014,08,09,11,15,20.40
2014,08,09,11,16,20.40
2014,08,09,11,17,20.50
2014,08,09,11,18,20.60
2014,08,09,11,19,20.70
2014,08,09,11,20,20.60
2014,08,09,11,21,20.50
2014,08,09,11,22,20.60
2014,08,09,11,23,20.60
2014,08,09,11,24,20.60
2014,08,09,11,25,20.60
2014,08,09,11,26,20.60
2014,08,09,11,27,20.60
2014,08,09,11,28,20.70
2014,08,09,11,29,20.70
2014,08,09,11,30,20.70
2014,08,09,11,31,20.70
2014,08,09,11,32,20.70
2014,08,09,11,33,20.70
2014,08,09,11,34,20.70
2014,08,09,11,35,20.70
2014,08,09,11,36,20.70
2014,08,09,11,37,20.70
2014,08,09,11,38,20.70
2014,08,09,11,39,20.80
2014,08,09,11,40,20.80
2014,08,09,11,41,20.80
2014,08,09,11,42,20.80
2014,08,09,11,43,20.90
2014,08,09,11,44,20.90
2014,08,09,11,45,20.90
2014,08,09,11,46,20.80
2014,08,09,11,47,20.90
2014,08,09,11,48,20.90
2014,08,09,11,49,20.90
2014,08,09,11,50,21.00
2014,08,09,11,51,21.00
2014,08,09,11,52,21.00
2014,08,09,11,53,21.00
2014,08,09,11,54,20.90
2014,08,09,11,55,20.90
2014,08,09,11,56,20.90
2014,08,09,11,57,20.80
2014,08,09,11,58,20.90
2014,08,09,11,59,21.00
2014,08,09,12,00,21.00
2014,08,09,12,01,21.10
2014,08,09,12,02,21.10
2014,08,09,12,03,21.10
2014,08,09,12,04,21.20
2014,08,09,12,05,21.30
2014,08,09,12,06,21.30
2014,08,09,12,07,21.30
2014,08,09,12,08,21.30
2014,08,09,12,09,21.30
2014,08,09,12,10,21.30
2014,08,09,12,11,21.30
2014,08,09,12,12,21.30
2014,08,09,12,13,21.40
2014,08,09,12,14,21.40
2014,08,09,12,15,21.50
2014,08,09,12,16,21.60
2014,08,09,12,17,21.70
2014,08,09,12,18,21.70
2014,08,09,12,19,21.80
2014,08,09,12,20,21.80
2014,08,09,12,21,21.80
2014,08,09,12,22,21.80
2014,08,09,12,23,21.80
2014,08,09,12,24,21.80
2014,08,09,12,25,21.80
2014,08,09,12,26,21.80
2014,08,09,12,27,21.80
2014,08,09,12,28,21.90
2014,08,09,12,29,21.90
2014,08,09,12,30,21.90
2014,08,09,12,31,21.90
2014,08,09,12,32,21.90
2014,08,09,12,33,21.90
2014,08,09,12,34,21.80
2014,08,09,12,35,21.70
2014,08,09,12,36,21.70
2014,08,09,12,37,21.70
2014,08,09,12,38,21.70
2014,08,09,12,39,21.80
2014,08,09,12,40,21.80
2014,08,09,12,41,21.80
2014,08,09,12,42,21.90
2014,08,09,12,43,21.90
2014,08,09,12,44,21.90
2014,08,09,12,45,22.00
2014,08,09,12,46,22.10
2014,08,09,12,47,22.20
2014,08,09,12,48,22.20
2014,08,09,12,49,22.20
2014,08,09,12,50,22.20
2014,08,09,12,51,22.10
2014,08,09,12,52,22.10
2014,08,09,12,53,22.10
2014,08,09,12,54,22.20
2014,08,09,12,55,22.20
2014,08,09,12,56,22.30
2014,08,09,12,57,22.30
2014,08,09,12,58,22.30
2014,08,09,12,59,22.30
2014,08,09,13,00,22.40
2014,08,09,13,01,22.40
2014,08,09,13,02,22.50
2014,08,09,13,03,22.50
2014,08,09,13,04,22.60
2014,08,09,13,05,22.60
2014,08,09,13,06,22.50
2014,08,09,13,07,22.50
2014,08,09,13,08,22.50
2014,08,09,13,09,22.60
2014,08,09,13,10,22.60
2014,08,09,13,11,22.70
2014,08,09,13,12,22.70
2014,08,09,13,13,22.80
2014,08,09,13,14,22.80
2014,08,09,13,15,22.80
2014,08,09,13,16,22.70
2014,08,09,13,17,22.70
2014,08,09,13,18,22.70
2014,08,09,13,19,22.70
2014,08,09,13,20,22.70
2014,08,09,13,21,22.70
2014,08,09,13,22,22.70
2014,08,09,13,23,22.80
2014,08,09,13,24,22.90
2014,08,09,13,25,22.90
2014,08,09,13,26,23.00
2014,08,09,13,27,23.00
2014,08,09,13,28,23.00
2014,08,09,13,29,23.00
2014,08,09,13,30,22.90
2014,08,09,13,31,22.90
2014,08,09,13,32,22.90
2014,08,09,13,33,22.90
2014,08,09,13,34,22.90
2014,08,09,13,35,23.00
2014,08,09,13,36,23.00
2014,08,09,13,37,23.10
2014,08,09,13,38,23.10
2014,08,09,13,39,23.10
2014,08,09,13,40,23.10
2014,08,09,13,41,23.10
2014,08,09,13,42,23.10
2014,08,09,13,43,23.00
2014,08,09,13,44,23.00
2014,08,09,13,45,23.00
2014,08,09,13,46,23.10
2014,08,09,13,47,23.20
2014,08,09,13,48,23.20
2014,08,09,13,49,23.30
2014,08,09,13,50,23.30
2014,08,09,13,51,23.40
2014,08,09,13,52,23.40
2014,08,09,13,53,23.40
2014,08,09,13,54,23.40
2014,08,09,13,55,23.50
2014,08,09,13,56,23.50
2014,08,09,13,57,23.60
2014,08,09,13,58,23.60
2014,08,09,13,59,23.60
2014,08,09,14,00,23.70
2014,08,09,14,01,23.70
2014,08,09,14,02,23.80
2014,08,09,14,03,23.80
2014,08,09,14,04,23.80
2014,08,09,14,05,23.80
2014,08,09,14,06,23.90
2014,08,09,14,07,23.90
2014,08,09,14,08,23.90
2014,08,09,14,09,24.00
2014,08,09,14,10,23.90
2014,08,09,14,11,23.90
2014,08,09,14,12,23.90
2014,08,09,14,13,23.90
2014,08,09,14,14,23.90
2014,08,09,14,15,23.90
2014,08,09,14,16,23.90
2014,08,09,14,17,23.80
2014,08,09,14,18,23.80
2014,08,09,14,19,23.80
2014,08,09,14,20,23.70
2014,08,09,14,21,23.80
2014,08,09,14,22,23.80
2014,08,09,14,23,23.80
2014,08,09,14,24,23.80
2014,08,09,14,25,23.70
2014,08,09,14,26,23.70
2014,08,09,14,27,23.70
2014,08,09,14,28,23.70
2014,08,09,14,29,23.70
2014,08,09,14,30,23.80
2014,08,09,14,31,23.80
2014,08,09,14,32,23.80
2014,08,09,14,33,23.90
2014,08,09,14,34,24.00
2014,08,09,14,35,24.00
2014,08,09,14,36,24.10
2014,08,09,14,37,24.10
2014,08,09,14,38,24.20
2014,08,09,14,39,24.20
2014,08,09,14,40,24.20
2014,08,09,14,41,24.20
2014,08,09,14,42,24.20
2014,08,09,14,43,24.20
2014,08,09,14,44,24.30
2014,08,09,14,45,24.20
2014,08,09,14,46,24.30
2014,08,09,14,47,24.30
2014,08,09,14,48,24.30
2014,08,09,14,49,24.30
2014,08,09,14,50,24.20
2014,08,09,14,51,24.20
2014,08,09,14,52,24.20
2014,08,09,14,53,24.20
2014,08,09,14,54,24.20
2014,08,09,14,55,24.30
2014,08,09,14,56,24.30
2014,08,09,14,57,24.30
2014,08,09,14,58,24.40
2014,08,09,14,59,24.50
2014,08,09,15,00,24.50
2014,08,09,15,01,24.60
2014,08,09,15,02,24.70
2014,08,09,15,03,24.70
2014,08,09,15,04,24.80
2014,08,09,15,05,24.80
2014,08,09,15,06,24.80
2014,08,09,15,07,24.80
2014,08,09,15,08,24.80
2014,08,09,15,09,24.90
2014,08,09,15,10,24.90
2014,08,09,15,11,25.00
2014,08,09,15,12,25.00
2014,08,09,15,13,25.10
2014,08,09,15,14,25.10
2014,08,09,15,15,25.20
2014,08,09,15,16,25.20
2014,08,09,15,17,25.20
2014,08,09,15,18,25.20
2014,08,09,15,19,25.20
2014,08,09,15,20,25.20
2014,08,09,15,21,25.10
2014,08,09,15,22,25.10
2014,08,09,15,23,25.10
2014,08,09,15,24,25.10
2014,08,09,15,25,25.10
2014,08,09,15,26,25.10
2014,08,09,15,27,25.30
2014,08,09,15,28,25.40
2014,08,09,15,29,25.40
2014,08,09,15,30,25.40
2014,08,09,15,31,25.50
2014,08,09,15,32,25.50
2014,08,09,15,33,25.60
2014,08,09,15,34,25.70
2014,08,09,15,35,25.80
2014,08,09,15,36,25.90
2014,08,09,15,37,26.00
2014,08,09,15,38,26.00
2014,08,09,15,39,26.00
2014,08,09,15,40,25.90
2014,08,09,15,41,25.90
2014,08,09,15,42,26.00
2014,08,09,15,43,26.10
2014,08,09,15,44,26.10
2014,08,09,15,45,26.10
2014,08,09,15,46,26.00
2014,08,09,15,47,25.90
2014,08,09,15,48,25.80
2014,08,09,15,49,25.80
2014,08,09,15,50,25.70
2014,08,09,15,51,25.70
2014,08,09,15,52,25.70
2014,08,09,15,53,25.70
2014,08,09,15,54,25.60
2014,08,09,15,55,25.50
2014,08,09,15,56,25.50
2014,08,09,15,57,25.40
2014,08,09,15,58,25.40
2014,08,09,15,59,25.30
2014,08,09,16,00,25.30
2014,08,09,16,01,25.30
2014,08,09,16,02,25.30
2014,08,09,16,03,25.30
2014,08,09,16,04,25.30
2014,08,09,16,05,25.30
2014,08,09,16,06,25.30
2014,08,09,16,07,25.30
2014,08,09,16,08,25.40
2014,08,09,16,09,25.40
2014,08,09,16,10,25.40
2014,08,09,16,11,25.40
2014,08,09,16,12,25.40
2014,08,09,16,13,25.40
2014,08,09,16,14,25.40
2014,08,09,16,15,25.40
2014,08,09,16,16,25.40
2014,08,09,16,17,25.40
2014,08,09,16,18,25.40
2014,08,09,16,19,25.40
2014,08,09,16,20,25.50
2014,08,09,16,21,25.50
2014,08,09,16,22,25.60
2014,08,09,16,23,25.60
2014,08,09,16,24,25.60
2014,08,09,16,25,25.70
2014,08,09,16,26,25.80
2014,08,09,16,27,25.80
2014,08,09,16,28,25.90
2014,08,09,16,29,25.90
2014,08,09,16,30,25.90
2014,08,09,16,31,25.90
2014,08,09,16,32,25.90
2014,08,09,16,33,25.90
2014,08,09,16,34,25.90
2014,08,09,16,35,25.90
2014,08,09,16,36,25.90
2014,08,09,16,37,26.00
2014,08,09,16,38,26.00
2014,08,09,16,39,26.00
2014,08,09,16,40,26.10
2014,08,09,16,41,26.10
2014,08,09,16,42,26.10
2014,08,09,16,43,26.20
2014,08,09,16,44,26.20
2014,08,09,16,45,26.20
2014,08,09,16,46,26.20
2014,08,09,16,47,26.30
2014,08,09,16,48,26.40
2014,08,09,16,49,26.40
2014,08,09,16,50,26.40
2014,08,09,16,51,26.40
2014,08,09,16,52,26.40
2014,08,09,16,53,26.40
2014,08,09,16,54,26.30
2014,08,09,16,55,26.30
2014,08,09,16,56,26.30
2014,08,09,16,57,26.30
2014,08,09,16,58,26.40
2014,08,09,16,59,26.40
2014,08,09,17,00,26.50
2014,08,09,17,01,26.60
2014,08,09,17,02,26.70
2014,08,09,17,03,26.70
2014,08,09,17,04,26.80
2014,08,09,17,05,26.80
2014,08,09,17,06,26.90
2014,08,09,17,07,27.00
2014,08,09,17,08,27.10
2014,08,09,17,09,27.10
2014,08,09,17,10,27.10
2014,08,09,17,11,27.10
2014,08,09,17,12,27.10
2014,08,09,17,13,27.10
2014,08,09,17,14,27.00
2014,08,09,17,15,27.00
2014,08,09,17,16,26.90
2014,08,09,17,17,26.80
2014,08,09,17,18,26.70
2014,08,09,17,19,26.60